www.pogodaiklimat.ru

Погода и климат >> Архив погоды >> Германия >> Berlin


АРХИВ ПОГОДЫ в Berlin

Время (UTC), дата Ветер
(напр.,м/с)
 
Видим.   Явления Облачность Т
(С)
Тd
(С)
f
(%)
Тe
(С)
Тes
(С)
Комфортность P
(гПа)
Po
(гПа)
Тmin
(С)
Tmax
(С)
R
(мм)
R24
(мм)
S
(см)
01 16.10 Ю 2-3
{3}
н/о н/о +13.3 +11.2 87 +13 +13 тепло 1022.6 1016.7
02 16.10 Ю 2-4
{4}
н/о н/о +13.2 +10.9 86 +12 +12 тепло 1022.3 1016.4
03 16.10 ЮЗ 1-2
{4}
н/о н/о +11.9 +10.0 88 +12 +12 тепло 1022.4 1016.4
05 16.10 ЮЗ 3-4
{4}
н/о н/о +12.0 +10.2 89 +10 +10 тепло 1022.2 1016.3
04 16.10 ЮЗ 2-4
{4}
н/о н/о +12.0 +10.3 89 +11 +11 тепло 1022.2 1016.3
06 16.10 ЮЗ 2 н/о н/о +11.5 +9.9 90 +10 +10 тепло 1022.4 1016.4 +11.3 +17.7
07 16.10 ЮЗ 3-5
{5}
н/о н/о +12.7 +10.6 87 +11 +11 тепло 1022.7 1016.8
08 16.10 ЮЗ 2-3
{4}
н/о н/о +14.8 +11.4 80 +14 +14 тепло 1022.9 1017.0
09 16.10 ЮЗ 2 н/о н/о +17.5 +12.2 71 +18 +18 тепло 1023.0 1017.2
11 16.10 З 3-4
{5}
н/о н/о +21.5 +13.5 60 +24 +24 комфорт 1023.0 1017.2
10 16.10 ЮЗ 3-5
{5}
н/о н/о +19.6 +12.9 65 +21 +21 комфорт 1023.0 1017.2
12 16.10 ЮЗ 4-6
{6}
н/о н/о +22.1 +13.4 58 +25 +25 комфорт 1022.5 1016.8
13 16.10 ЮЗ 4-6
{6}
н/о н/о +22.5 +13.6 57 +26 +26 жарко 1022.5 1016.8
14 16.10 ЮЗ 3-5
{6}
н/о н/о +23.1 +13.8 56 +27 +27 душно 1022.4 1016.7
15 16.10 ЮЗ 4-7
{7}
н/о н/о +21.9 +13.3 58 +25 +25 комфорт 1022.5 1016.8
17 16.10 Ю 2-4
{4}
н/о н/о +19.0 +13.7 71 +21 +21 комфорт 1022.1 1016.3
16 16.10 ЮЗ 3-4
{6}
н/о н/о +20.6 +13.9 65 +23 +23 комфорт 1022.3 1016.5
18 16.10 Ю 2 н/о н/о +18.0 +13.4 74 +19 +19 тепло 1022.0 1016.2 +11.4 +23.1
19 16.10 Ю 2-3
{4}
н/о н/о +17.3 +13.4 78 +18 +18 тепло 1022.1 1016.3
20 16.10 Ю 1-2
{4}
н/о н/о +16.8 +13.3 80 +18 +18 тепло 1022.2 1016.4
21 16.10 Ю 1-2
{4}
н/о н/о +16.0 +13.1 83 +17 +17 тепло 1022.4 1016.5
23 16.10 Ю 1-2
{3}
н/о н/о +15.1 +12.7 86 +16 +16 тепло 1022.1 1016.2
22 16.10 Ю 2-3
{3}
н/о н/о +15.7 +12.9 83 +16 +16 тепло 1022.2 1016.3
00 17.10 Ю 1 н/о н/о +14.2 +12.1 87 +15 +15 тепло 1022.1 1016.2
01 17.10 Ю 1-2
{2}
н/о н/о +14.0 +12.1 88 +14 +14 тепло 1021.9 1016.0
02 17.10 Ю 2-3
{3}
н/о н/о +14.3 +11.8 85 +14 +14 тепло 1021.7 1015.8
03 17.10 Ю 3-5
{5}
н/о н/о +15.0 +11.7 81 +14 +14 тепло 1021.6 1015.7
05 17.10 Ю 3-4
{4}
н/о н/о +14.1 +11.1 82 +13 +13 тепло 1021.4 1015.5
04 17.10 Ю 2-4
{5}
н/о н/о +14.5 +11.4 82 +14 +14 тепло 1021.5 1015.6
06 17.10 Ю 2 н/о н/о +13.6 +10.8 83 +13 +13 тепло 1021.3 1015.4 +13.6 +18.0
07 17.10 ЮЗ 2-4
{4}
н/о н/о +14.1 +11.1 82 +14 +14 тепло 1021.8 1015.9
08 17.10 ЮЗ 3-4
{5}
н/о н/о +16.0 +11.7 76 +16 +16 тепло 1022.0 1016.1
09 17.10 ЮЗ 2 н/о н/о +18.5 +12.2 67 +20 +20 тепло 1021.9 1016.1
11 17.10 З 4-6
{7}
н/о н/о +21.2 +12.8 59 +23 +23 комфорт 1021.3 1015.5
10 17.10 З 3-4
{5}
н/о н/о +20.4 +12.9 62 +23 +23 комфорт 1021.8 1016.0
12 17.10 ЮЗ 4-5
{7}
н/о н/о +22.1 +13.0 56 +25 +25 комфорт 1020.6 1014.9
13 17.10 З 4-7
{7}
н/о н/о +22.8 +13.0 54 +26 +26 жарко 1020.0 1014.3
14 17.10 З 3-5
{6}
н/о н/о +22.7 +13.2 55 +26 +26 жарко 1019.6 1013.9
15 17.10 З 3-4
{7}
н/о н/о +21.8 +13.6 60 +25 +25 комфорт 1019.2 1013.5
17 17.10 ЮЗ 1-1
{2}
н/о н/о +18.5 +13.3 72 +20 +20 тепло 1018.9 1013.1
16 17.10 З 2-2
{3}
н/о н/о +20.3 +13.3 64 +23 +23 комфорт 1019.0 1013.2
18 17.10 штиль 0 н/о н/о +15.9 +13.2 84 +16 +16 тепло 1018.9 1013.1 +13.5 +23.0
19 17.10 С 1-3
{3}
н/о н/о +13.8 +11.4 85 +14 +14 тепло 1018.8 1012.9
20 17.10 С 1-1
{2}
н/о н/о +14.4 +12.6 89 +15 +15 тепло 1018.6 1012.7
21 17.10 СВ 1-1
{3}
н/о н/о +14.2 +13.0 92 +14 +14 тепло 1018.7 1012.8
23 17.10 штиль 0-1
{1}
н/о н/о +12.0 +11.2 95 +11 +11 тепло 1018.4 1012.5
22 17.10 ЮЗ 1-1
{1}
н/о н/о +12.7 +11.7 94 +13 +13 тепло 1018.5 1012.6
00 18.10 Ю 1 н/о н/о +11.8 +11.1 95 +12 +12 тепло 1018.2 1012.3
01 18.10 ЮЗ 1-1
{1}
н/о н/о +10.9 +10.1 95 +10 +10 тепло 1017.8 1011.9
02 18.10 ЮЗ 1-1
{2}
н/о н/о +11.0 +10.5 97 +11 +11 тепло 1017.2 1011.3
03 18.10 Ю 1-1
{2}
н/о н/о +11.2 +10.7 97 +11 +11 тепло 1016.8 1010.9
05 18.10 Ю 1-1
{2}
н/о н/о +10.7 +10.2 97 +10 +10 тепло 1016.6 1010.7
04 18.10 З 1-1
{1}
н/о н/о +9.5 +8.8 95 +9 +9 тепло 1017.2 1011.2
06 18.10 штиль 0 н/о н/о +9.2 +8.5 95 +8 +8 тепло 1016.8 1010.8 +9.0 +16.1
07 18.10 штиль 0-1
{1}
н/о н/о +10.1 +9.9 99 +9 +9 тепло 1017.0 1011.0
08 18.10 штиль 0-1
{1}
н/о н/о +12.4 +12.0 97 +12 +12 тепло 1016.9 1011.0
09 18.10 СВ 1 н/о н/о +14.8 +13.6 93 +15 +15 тепло 1016.8 1010.9
11 18.10 СВ 2-3
{3}
н/о н/о +17.7 +11.8 68 +18 +18 тепло 1016.3 1010.5
10 18.10 В 2-3
{3}
н/о н/о +16.8 +12.6 76 +17 +17 тепло 1016.4 1010.6
12 18.10 В 2-3
{3}
н/о н/о +18.7 +12.3 66 +20 +20 тепло 1015.6 1009.8
13 18.10 В 2-3
{4}
н/о н/о +18.8 +11.9 64 +20 +20 тепло 1015.2 1009.4
14 18.10 ЮВ 2-4
{4}
н/о н/о +18.4 +11.1 62 +19 +19 тепло 1014.8 1009.0
15 18.10 В 2-2
{4}
н/о н/о +18.2 +12.3 68 +19 +19 тепло 1014.6 1008.8
17 18.10 В 2-3
{3}
н/о н/о +15.1 +11.9 81 +15 +15 тепло 1014.7 1008.9
16 18.10 В 2-2
{3}
н/о н/о +16.2 +11.2 72 +16 +16 тепло 1014.7 1008.9
18 18.10 В 2 н/о н/о +14.0 +11.0 82 +13 +13 тепло 1014.8 1008.9 +8.8 +19.0
19 18.10 В 2-2
{4}
н/о н/о +12.6 +10.5 87 +12 +12 тепло 1014.9 1009.0
20 18.10 В 3-4
{5}
н/о н/о +12.8 +10.6 86 +11 +11 тепло 1015.0 1009.1
21 18.10 СВ 1-1
{5}
н/о н/о +12.0 +9.9 87 +12 +12 тепло 1015.3 1009.4
23 18.10 В 1-2
{4}
н/о н/о +10.5 +9.2 92 +10 +10 тепло 1014.9 1009.0
22 18.10 В 2-3
{3}
н/о н/о +10.9 +9.1 89 +10 +10 тепло 1014.9 1009.0
00 19.10 В 3 н/о н/о +10.7 +9.6 93 +9 +9 тепло 1014.8 1008.9
01 19.10 В 3-4
{5}
н/о н/о +10.4 +9.4 94 +8 +8 тепло 1014.7 1008.8
02 19.10 В 2-3
{4}
н/о н/о +9.8 +8.9 94 +8 +8 тепло 1014.6 1008.6
03 19.10 В 1-2
{5}
н/о н/о +9.2 +8.3 94 +8 +8 по сезону 1014.8 1008.8
05 19.10 СВ 1-2
{2}
н/о н/о +7.7 +6.8 94 +7 +7 тепло 1014.8 1008.8
04 19.10 В 1-2
{2}
н/о н/о +9.0 +8.4 96 +8 +8 тепло 1014.9 1008.9
06 19.10 ЮВ 1 н/о н/о +9.2 +8.7 97 +8 +8 тепло 1015.1 1009.1 +7.5 +13.9
07 19.10 В 2-3
{3}
н/о н/о +9.8 +9.2 96 +8 +8 тепло 1015.5 1009.5
08 19.10 ЮВ 2-3
{3}
н/о н/о +10.0 +9.6 97 +8 +8 тепло 1015.8 1009.8
09 19.10 В 2 н/о н/о +10.6 +10.1 97 +9 +9 по сезону 1015.7 1009.8
11 19.10 Ю 2-3
{3}
н/о н/о +12.3 +10.7 90 +11 +11 тепло 1015.8 1009.9
10 19.10 ЮВ 2-3
{3}
н/о н/о +11.2 +10.4 95 +10 +10 по сезону 1015.9 1010.0
12 19.10 Ю 2-3
{4}
н/о н/о +13.0 +10.8 86 +12 +12 по сезону 1015.5 1009.6
13 19.10 ЮВ 2-3
{4}
н/о н/о +13.0 +11.1 88 +12 +12 тепло 1015.4 1009.5
14 19.10 Ю 2-3
{4}
н/о н/о +13.1 +11.1 88 +12 +12 тепло 1015.1 1009.2
15 19.10 Ю 2-3
{4}
н/о н/о +13.3 +11.3 88 +13 +13 тепло 1015.0 1009.1
17 19.10 ЮВ 1-2
{2}
н/о н/о +12.1 +10.9 92 +12 +12 тепло 1014.6 1008.7
16 19.10 Ю 1-1
{3}
н/о н/о +12.9 +11.1 89 +13 +13 тепло 1014.7 1008.8
18 19.10 ЮВ 2 н/о н/о +12.3 +11.1 92 +11 +11 тепло 1014.6 1008.7 +9.3 +14.1
19 19.10 В 2-4
{4}
н/о н/о +12.8 +11.6 92 +12 +12 тепло 1014.6 1008.7
20 19.10 В 2-4
{4}
н/о н/о +12.3 +11.3 94 +11 +11 тепло 1014.5 1008.6
21 19.10 ЮВ 3-4
{4}
н/о н/о +12.5 +11.4 93 +11 +11 тепло 1014.5 1008.6
23 19.10 ЮВ 3-4
{5}
н/о н/о +11.9 +11.1 95 +10 +10 тепло 1013.8 1007.9
22 19.10 ЮВ 3-4
{5}
н/о н/о +12.2 +11.3 94 +11 +11 тепло 1014.2 1008.3
00 20.10 ЮВ 3 н/о н/о +11.5 +10.5 94 +10 +10 тепло 1013.7 1007.8
01 20.10 ЮВ 3-4
{4}
н/о н/о +11.1 +9.9 92 +9 +9 тепло 1013.7 1007.8
02 20.10 ЮВ 2-3
{4}
н/о н/о +10.5 +9.4 93 +9 +9 тепло 1013.6 1007.7
03 20.10 ЮВ 2-3
{4}
н/о н/о +10.1 +9.1 94 +8 +8 тепло 1013.6 1007.7
05 20.10 ЮВ 2-3
{4}
н/о н/о +9.3 +8.3 93 +7 +7 тепло 1013.6 1007.6
04 20.10 ЮВ 2-3
{4}
н/о н/о +9.6 +8.6 93 +8 +8 тепло 1013.6 1007.6
06 20.10 ЮВ 2 н/о н/о +9.7 +8.5 92 +8 +8 тепло 1013.3 1007.4 +9.1 +12.8
07 20.10 ЮВ 2-4
{4}
н/о н/о +10.1 +8.7 91 +9 +9 тепло 1013.6 1007.7
08 20.10 ЮВ 2-4
{4}
н/о н/о +11.8 +9.5 86 +11 +11 тепло 1013.6 1007.7
09 20.10 ЮВ 3 н/о н/о +13.4 +9.1 75 +12 +12 тепло 1013.7 1007.8
11 20.10 ЮВ 4-5
{5}
н/о н/о +16.2 +10.1 67 +16 +16 тепло 1013.1 1007.3
10 20.10 ЮВ 3-5
{5}
н/о н/о +15.1 +9.2 68 +14 +14 тепло 1013.5 1007.7
12 20.10 Ю 3-4
{6}
н/о н/о +16.0 +10.1 68 +16 +16 тепло 1013.4 1007.6 0.0
13 20.10 ЮВ 2-4
{5}
н/о н/о +16.2 +10.6 69 +16 +16 тепло 1013.0 1007.2
14 20.10 Ю 2-3
{4}
н/о н/о +16.3 +11.0 71 +16 +16 тепло 1012.9 1007.1
15 20.10 ЮВ 3-5
{5}
н/о н/о +16.1 +11.5 74 +16 +16 тепло 1012.1 1006.3 0.1
17 20.10 Ю 2-3
{4}
н/о н/о +15.1 +11.8 81 +15 +15 тепло 1012.7 1006.9
16 20.10 ЮВ 3-4
{4}
н/о н/о +15.8 +11.7 77 +15 +15 тепло 1012.1 1006.3
18 20.10 Ю 2 н/о н/о +15.3 +11.4 78 +15 +15 тепло 1012.3 1006.5 +9.5 +16.4 0.0
19 20.10 ЮВ 2-3
{3}
н/о н/о +14.3 +12.0 86 +14 +14 тепло 1012.2 1006.4
20 20.10 Ю 3-6
{6}
н/о н/о +14.2 +12.2 88 +13 +13 тепло 1013.0 1007.2
21 20.10 З 3-4
{6}
н/о н/о +14.0 +11.5 85 +13 +13 тепло 1013.7 1007.8 4
23 20.10 ЮЗ 2-4
{4}
н/о н/о +12.1 +10.1 88 +11 +11 тепло 1014.2 1008.3
22 20.10 ЮЗ 2-2
{4}
н/о н/о +12.5 +10.2 86 +12 +12 тепло 1013.9 1008.0
00 21.10 ЮЗ 2 н/о н/о +11.9 +9.7 86 +11 +11 тепло 1014.4 1008.5
01 21.10 ЮЗ 3-5
{5}
н/о н/о +11.7 +9.5 86 +10 +10 тепло 1014.5 1008.6
02 21.10 ЮЗ 2-3
{4}
н/о н/о +11.4 +9.2 86 +10 +10 тепло 1014.4 1008.5
03 21.10 ЮЗ 2-3
{5}
н/о н/о +10.9 +8.9 87 +10 +10 тепло 1014.3 1008.4 0.0
05 21.10 ЮЗ 2-4
{5}
н/о н/о +10.7 +8.4 86 +9 +9 тепло 1014.4 1008.5
04 21.10 ЮЗ 3-4
{4}
н/о н/о +10.6 +8.5 87 +9 +9 тепло 1014.6 1008.7
06 21.10 Ю 2 н/о н/о +10.5 +8.3 86 +9 +9 тепло 1014.8 1008.9 +10.5 +15.4 4
07 21.10 ЮЗ 2-3
{3}
н/о н/о +10.7 +8.3 85 +9 +9 тепло 1015.1 1009.2
08 21.10 ЮЗ 2-4
{4}
н/о н/о +11.3 +8.7 84 +10 +10 тепло 1015.3 1009.4
09 21.10 ЮЗ 3 н/о н/о +11.6 +8.7 82 +10 +10 тепло 1015.5 1009.6
11 21.10 ЮЗ 2-3
{4}
н/о н/о +12.2 +8.5 78 +11 +11 тепло 1015.2 1009.3
10 21.10 ЮЗ 3-4
{4}
н/о н/о +11.8 +8.5 80 +10 +10 по сезону 1015.5 1009.6
12 21.10 Ю 2-3
{5}
н/о н/о +12.3 +8.8 79 +11 +11 по сезону 1014.9 1009.0
13 21.10 Ю 2-3
{4}
н/о н/о +12.4 +9.0 80 +12 +12 тепло 1014.7 1008.8
14 21.10 Ю 3-4
{4}
н/о н/о +12.7 +8.7 77 +11 +11 тепло 1014.3 1008.4
15 21.10 ЮВ 2-3
{5}
н/о н/о +12.6 +8.5 76 +12 +12 тепло 1014.7 1008.8
17 21.10 ЮВ 2-4
{4}
н/о н/о +12.2 +8.9 80 +11 +11 тепло 1014.5 1008.6
16 21.10 ЮВ 2-4
{4}
н/о н/о +12.4 +8.8 79 +12 +12 тепло 1014.4 1008.5
18 21.10 ЮВ 3 н/о н/о +11.7 +9.0 83 +10 +10 по сезону 1014.3 1008.4 +10.4 +12.7 0.0
19 21.10 ЮВ 3-4
{4}
н/о н/о +12.0 +8.9 81 +10 +10 тепло 1014.1 1008.2
20 21.10 ЮВ 2-3
{4}
н/о н/о +11.7 +9.4 86 +11 +11 тепло 1013.7 1007.8
21 21.10 ЮВ 3-5
{5}
н/о н/о +11.4 +9.6 89 +10 +10 тепло 1013.5 1007.6 0.4
23 21.10 ЮВ 3-4
{5}
н/о н/о +11.5 +9.9 90 +10 +10 тепло 1012.8 1006.9
22 21.10 Ю 2-4
{5}
н/о н/о +11.4 +9.5 88 +10 +10 тепло 1013.3 1007.4
00 22.10 Ю 2 н/о н/о +11.5 +10.4 93 +10 +10 тепло 1012.8 1006.9 0.0
01 22.10 Ю 2-3
{3}
н/о н/о +11.6 +10.8 95 +10 +10 тепло 1012.4 1006.5
02 22.10 ЮЗ 2-3
{3}
н/о н/о +12.2 +11.5 95 +11 +11 тепло 1012.2 1006.3
03 22.10 ЮЗ 2-3
{3}
н/о н/о +12.1 +11.5 96 +11 +11 тепло 1012.0 1006.1 2
05 22.10 ЮЗ 3-5
{5}
н/о н/о +12.1 +11.1 94 +10 +10 тепло 1012.0 1006.1
04 22.10 ЮЗ 3-6
{6}
н/о н/о +12.4 +11.1 92 +11 +11 тепло 1011.8 1005.9
06 22.10 ЮЗ 4 н/о н/о +12.0 +11.0 94 +10 +10 тепло 1012.0 1006.1 +11.2 +12.5 3
07 22.10 ЮЗ 3-5
{5}
н/о н/о +11.8 +10.4 91 +10 +10 тепло 1012.1 1006.2
08 22.10 ЮЗ 4-7
{8}
н/о н/о +12.2 +9.8 85 +10 +10 тепло 1012.2 1006.3
09 22.10 ЮЗ 4 н/о н/о +12.0 +9.0 82 +10 +10 тепло 1011.9 1006.0 0.3
11 22.10 З 5-7
{9}
н/о н/о +14.8 +8.2 65 +13 +13 тепло 1011.6 1005.8
10 22.10 ЮЗ 5-8
{8}
н/о н/о +13.3 +8.9 75 +11 +11 тепло 1011.6 1005.7
12 22.10 ЮЗ 5-8
{9}
н/о н/о +14.6 +6.2 57 +13 +13 тепло 1011.3 1005.5
13 22.10 ЮЗ 5-6
{8}
н/о н/о +13.9 +6.5 61 +12 +12 тепло 1011.1 1005.2
14 22.10 ЮЗ 5-10
{10}
н/о н/о +13.3 +5.9 61 +11 +11 тепло 1011.2 1005.3
15 22.10 ЮЗ 4-8
{10}
н/о н/о +12.8 +6.7 66 +11 +11 тепло 1011.4 1005.5 0.0
17 22.10 ЮЗ 4-7
{7}
н/о н/о +11.6 +7.0 73 +10 +10 тепло 1011.9 1006.0
16 22.10 ЮЗ 4-7
{8}
н/о н/о +12.2 +6.9 70 +10 +10 тепло 1011.7 1005.8
18 22.10 ЮЗ 3 н/о н/о +11.0 +7.4 78 +9 +9 по сезону 1012.0 1006.1 +11.0 +15.1 0.0
19 22.10 ЮЗ 3-4
{6}
н/о н/о +10.6 +7.8 83 +9 +9 тепло 1012.1 1006.2
20 22.10 ЮЗ 4-5
{5}
н/о н/о +10.5 +7.8 83 +8 +8 тепло 1012.2 1006.3
21 22.10 ЮЗ 4-6
{6}
н/о н/о +10.3 +8.1 86 +8 +8 по сезону 1012.4 1006.5 0.0
23 22.10 З 3-6
{6}
н/о н/о +10.3 +8.6 89 +8 +8 тепло 1012.8 1006.9
22 22.10 ЮЗ 3-5
{5}
н/о н/о +10.5 +8.3 86 +8 +8 тепло 1012.7 1006.8

 

Местоположение метеостанции Berlin (Германия): широта 52.47 долгота 13.40 высота над уровнем моря 50 м.

В архиве по умолчанию представлена погода в Berlin за последнюю неделю. Архивные данные за месяц целиком и за предыдущие месяцы, начиная с января 2011 года, Вы можете получить, выбрав интересующий диапазон дат из раскрывающегося списка и нажав кнопку "Ввод!".

Внимание! Время в таблицах - всемирное. Для получения местного времени необходимо прибавить поправку, которая в Berlin равна 1 ч.

Смотрите также архив погоды в соседних городах и на ближайших метеорологических станциях:

Погода в Berlin-Dahlem (Германия) (7 км)
Погода в Berlin-Tegel (Германия) (12 км)
Погода в Berlin-Schonefeld (Германия) (13 км)
Погода в Potsdam (Германия) (25 км)
Погода в Baruth (Германия) (42 км)
Погода в Lindenberg (Германия) (56 км)
Погода в Neuruppin (Германия) (62 км)
Погода в Angermuende (Германия) (74 км)
Погода в Wiesenburg (Германия) (74 км)
Погода в Manschnow (Германия) (78 км)

Пояснения к столбцам:

Ветер - указаны скорость ветра в м/с - средняя за 10 мин, порывы в срок и между сроками (в фигурных скобках) и направление, откуда дует ветер: С - северный, СВ - северо-восточный, В - восточный, ЮВ - юго-восточный, Ю - южный, ЮЗ - юго-западный, З - западный, СЗ - северо-западный.
Видимость - горизонтальная дальность видимости в метрах или километрах. При видимости от 1 до 10 км при отсутствии осадков обычно наблюдается дымка, при ухудшении видимости до 1 км и менее - туман. В сухую погоду видимость может ухудшаться дымом, пылью или мглою.
Явления - указаны атмосферные явления, наблюдавшиеся в срок или в последний час перед сроком; фигурными скобками обозначены явления, наблюдавшиеся между сроками (за 1-3 часа до срока); квадратными скобками обозначены град или гололедные отложения с указанием их диаметра в мм.
Облачность - указаны через наклонную черту общая и нижняя облачность в баллах и высота нижней границы облаков в метрах; квадратными скобками обозначены формы облаков: Ci - перистые, Cs - перисто-слоистые, Cc - перисто-кучевые, Ac - высококучевые, As - высокослоистые, Sc - слоисто-кучевые, Ns - слоисто-дождевые, Cu - кучевые, Cb - кучево-дождевые. Подробнее классификацию облаков см. в Атласе облаков (PDF).
T - Температура воздуха - температура, измеренная на высоте 2 м над землей.
Td - Температура точки росы - температура, при понижении до которой содержащийся в воздухе водяной пар достигнет насыщения.
f - Относительная влажность воздуха - влажноcть воздуха, измеренная на высоте 2 м над землей.
Te - Эффективная температура - температура, которую ощущает одетый по сезону человек в тени. Характеристика душности погоды. При расчете учитывается влияние влажности воздуха и скорости ветра на теплоощущения человека.
Tes - Эффективная температура на солнце - температура, которую ощущает человек, с поправкой на солнечный нагрев. Характеристика знойности погоды. Зависит от высоты солнца над горизонтом, облачности и скорости ветра. Ночью, в пасмурную погоду, а также при ветре 12 м/с и более поправка равна нулю.
P - Атмосферное давление - приведенное к уровню моря атмосферное давление.
Po - Атмосферное давление - измеренное на уровне метеостанции атмосферное давление.
Tmin - Минимальная температура - минимум температуры воздуха на высоте 2 м над землей.
Tmax - Максимальная температура - максимум температуры воздуха на высоте 2 м над землей.
R - Количество осадков - Количество выпавших осадков за период времени, мм. При наведении курсора мыши на число - период времени, за который выпало указанное количество осадков.
R24 - Количество осадков - Количество выпавших осадков за 24 часа, мм.
S - Снежный покров - Высота снежного покрова, см. При наведении курсора мыши на число - состояние снежного покрова и степень покрытия местности в баллах.